Voltar ao catálogo

DMSP 5D-2 F13 DEB

AtivoSSO
NORAD 40525·DEBRIS·🇺🇸 United States

Lançado Mar 24, 1995 de Vandenberg Space Force Base

Loading…

Próximas Passagens (próximas 24 horas)

TLE

AtualizadoSource: Space-Track

Época: Sep 14, 2026, 01:43 UTC

1 40525U 95015DM  26257.07204020  .00003077  00000-0  98500-3 0  9995
2 40525  98.6721 300.8808 0010211 356.3183   3.7928 14.40277242594945

Acompanhe DMSP 5D-2 F13 DEB em tempo real com AllMySat

Download on the App Store